Location: Gollag?dem
(16.8053°N, 80.8024°E)
Time: 18:09:12
(UTC+00:00)

Meteor 2-10 Rocket - Pass Details

Date: 13 August 2020
Orbit: 734 x 884 km, 81.2° (Epoch: 19 September)

Event Time Altitude Azimuth Distance (km) Brightness Sun altitude
Exits shadow 23:29:08 11° 216° (SW) 2,181 5.4 -12.5°
Maximum altitude 23:33:28 34° 279° (W) 1,245 4.1 -11.5°
Drops below altitude 10° 23:38:11 10° 343° (NNW) 2,334 6.0 -10.5°
Sets 23:40:48 0° 352° (N) 3,289 6.9 -9.9°
